VYA406 CYVR-CYDC

Flight info

Callsign VYA406
Flight time 0h 54m
Altitude 7000
Route YVR V342 YDC
Aircraft C208/L-SDFGR/C

Departure

Time 2026-04-15 03:07
Airport Vancouver International Airport (CYVR)

Arrival

Time 2026-04-15 04:02
Airport Princeton Airport (CYDC)
Time Latitude Longitude Altitude Speed Heading
2026-04-15 02:44 49.18132 -123.16070 15 ft 0 kts 191°
2026-04-15 02:57 49.18130 -123.16072 15 ft 2 kts 228°
2026-04-15 02:57 49.18135 -123.16128 15 ft 0 kts 272°
2026-04-15 02:57 49.18140 -123.16196 15 ft 0 kts 272°
2026-04-15 02:58 49.18141 -123.16204 15 ft 7 kts 271°
2026-04-15 02:59 49.18171 -123.16274 15 ft 11 kts
2026-04-15 02:59 49.18226 -123.16395 15 ft 19 kts 275°
2026-04-15 02:59 49.18240 -123.16620 15 ft 0 kts 283°
2026-04-15 03:00 49.18245 -123.16722 15 ft 14 kts 276°
2026-04-15 03:00 49.18255 -123.16887 15 ft 16 kts 274°
2026-04-15 03:00 49.18266 -123.17114 15 ft 23 kts 273°
2026-04-15 03:00 49.18328 -123.17241 15 ft 20 kts 323°
2026-04-15 03:01 49.18427 -123.17384 15 ft 17 kts 281°
2026-04-15 03:01 49.18455 -123.17604 15 ft 26 kts 279°
2026-04-15 03:01 49.18481 -123.17823 15 ft 20 kts 275°
2026-04-15 03:01 49.18503 -123.18029 15 ft 20 kts 278°
2026-04-15 03:02 49.18523 -123.18208 14 ft 21 kts 279°
2026-04-15 03:02 49.18553 -123.18472 13 ft 25 kts 280°
2026-04-15 03:02 49.18578 -123.18705 15 ft 25 kts 281°
2026-04-15 03:02 49.18613 -123.19000 15 ft 21 kts 279°
2026-04-15 03:03 49.18634 -123.19183 16 ft 19 kts 277°
2026-04-15 03:03 49.18662 -123.19427 16 ft 24 kts 277°
2026-04-15 03:03 49.18694 -123.19704 16 ft 31 kts 279°
2026-04-15 03:03 49.18718 -123.19932 16 ft 16 kts 283°
2026-04-15 03:04 49.18743 -123.20147 16 ft 22 kts 278°
2026-04-15 03:04 49.18772 -123.20398 16 ft 19 kts 284°
2026-04-15 03:04 49.18835 -123.20516 16 ft 15 kts
2026-04-15 03:04 49.18860 -123.20513 16 ft 0 kts
2026-04-15 03:05 49.18871 -123.20510 16 ft 8 kts 11°
2026-04-15 03:06 49.18960 -123.20478 17 ft 7 kts 24°
2026-04-15 03:06 49.18971 -123.20440 17 ft 0 kts 100°
2026-04-15 03:06 49.18955 -123.20299 17 ft 43 kts 101°
2026-04-15 03:06 49.18904 -123.19577 63 ft 84 kts 110°
2026-04-15 03:07 49.18785 -123.18665 301 ft 91 kts 115°
2026-04-15 03:07 49.18673 -123.17650 550 ft 107 kts 111°
2026-04-15 03:07 49.18559 -123.16500 945 ft 108 kts 110°
2026-04-15 03:07 49.18364 -123.15440 1339 ft 103 kts 135°
2026-04-15 03:08 49.17828 -123.14910 1751 ft 92 kts 162°
2026-04-15 03:08 49.17247 -123.14388 2004 ft 109 kts 159°
2026-04-15 03:08 49.16491 -123.13795 2016 ft 134 kts 160°
2026-04-15 03:08 49.15666 -123.13172 2289 ft 132 kts 161°
2026-04-15 03:09 49.14882 -123.12481 2627 ft 135 kts 146°
2026-04-15 03:09 49.14477 -123.11116 2895 ft 151 kts 97°
2026-04-15 03:09 49.14348 -123.09542 3195 ft 147 kts 113°
2026-04-15 03:09 49.14018 -123.08075 3503 ft 147 kts 112°
2026-04-15 03:10 49.13740 -123.06559 3795 ft 149 kts 108°
2026-04-15 03:10 49.13516 -123.05220 4058 ft 150 kts 108°
2026-04-15 03:10 49.13264 -123.03700 4372 ft 148 kts 107°
2026-04-15 03:10 49.13024 -123.02226 4827 ft 137 kts 107°
2026-04-15 03:11 49.12796 -123.00827 5172 ft 137 kts 108°
2026-04-15 03:11 49.12561 -122.99417 5511 ft 138 kts 108°
2026-04-15 03:11 49.12325 -122.97993 5839 ft 139 kts 107°
2026-04-15 03:11 49.12087 -122.96561 6175 ft 140 kts 107°
2026-04-15 03:12 49.11849 -122.95119 6485 ft 141 kts 108°
2026-04-15 03:12 49.11609 -122.93670 6793 ft 141 kts 109°
2026-04-15 03:12 49.11370 -122.92234 7107 ft 141 kts 109°
2026-04-15 03:12 49.11128 -122.90773 7422 ft 143 kts 110°
2026-04-15 03:13 49.10883 -122.89302 7759 ft 144 kts 111°
2026-04-15 03:13 49.10636 -122.87815 8084 ft 145 kts 111°
2026-04-15 03:13 49.10388 -122.86319 8400 ft 146 kts 112°
2026-04-15 03:13 49.10138 -122.84817 8726 ft 146 kts 113°
2026-04-15 03:14 49.09886 -122.83309 9052 ft 147 kts 113°
2026-04-15 03:14 49.09633 -122.81791 9376 ft 148 kts 114°
2026-04-15 03:14 49.09381 -122.80277 9670 ft 149 kts 114°
2026-04-15 03:14 49.09125 -122.78739 9951 ft 150 kts 115°
2026-04-15 03:15 49.08866 -122.77193 10220 ft 151 kts 115°
2026-04-15 03:15 49.08605 -122.75634 10505 ft 152 kts 115°
2026-04-15 03:15 49.08342 -122.74067 10771 ft 153 kts 116°
2026-04-15 03:15 49.08079 -122.72492 11042 ft 154 kts 116°
2026-04-15 03:16 49.07812 -122.70907 11321 ft 155 kts 116°
2026-04-15 03:16 49.07650 -122.69846 11494 ft 159 kts 109°
2026-04-15 03:16 49.07640 -122.68114 11766 ft 165 kts 96°
2026-04-15 03:16 49.07661 -122.66362 12010 ft 167 kts 99°
2026-04-15 03:17 49.07658 -122.64492 12030 ft 184 kts 98°
2026-04-15 03:17 49.07660 -122.61791 12031 ft 199 kts 97°
2026-04-15 03:17 49.07668 -122.59640 12027 ft 206 kts 97°
2026-04-15 03:17 49.07674 -122.57440 12028 ft 209 kts 97°
2026-04-15 03:18 49.07677 -122.55935 12023 ft 210 kts 97°
2026-04-15 03:18 49.07663 -122.53731 12029 ft 211 kts 98°
2026-04-15 03:18 49.07638 -122.51477 12028 ft 214 kts 98°
2026-04-15 03:18 49.07618 -122.49192 12029 ft 216 kts 98°
2026-04-15 03:19 49.07601 -122.46896 12028 ft 217 kts 98°
2026-04-15 03:19 49.07581 -122.44590 12026 ft 218 kts 98°
2026-04-15 03:19 49.07562 -122.42280 12029 ft 218 kts 97°
2026-04-15 03:19 49.07541 -122.39962 12020 ft 219 kts 97°
2026-04-15 03:20 49.07519 -122.37650 12019 ft 218 kts 98°
2026-04-15 03:20 49.07499 -122.35364 12019 ft 219 kts 98°
2026-04-15 03:20 49.07478 -122.33045 12017 ft 219 kts 98°
2026-04-15 03:20 49.07454 -122.30720 12019 ft 220 kts 98°
2026-04-15 03:21 49.07431 -122.28392 12017 ft 220 kts 98°
2026-04-15 03:21 49.07384 -122.23729 12018 ft 220 kts 98°
2026-04-15 03:21 49.07361 -122.21393 12015 ft 221 kts 98°
2026-04-15 03:22 49.07343 -122.19063 12018 ft 219 kts 98°
2026-04-15 03:22 49.07322 -122.16732 12013 ft 220 kts 98°
2026-04-15 03:22 49.07299 -122.14399 12011 ft 220 kts 98°
2026-04-15 03:22 49.07278 -122.12092 12010 ft 220 kts 98°
2026-04-15 03:23 49.07255 -122.09758 12011 ft 220 kts 98°
2026-04-15 03:23 49.07232 -122.07422 12009 ft 221 kts 98°
2026-04-15 03:23 49.07208 -122.05079 12012 ft 221 kts 98°
2026-04-15 03:23 49.07185 -122.02732 12011 ft 222 kts 98°
2026-04-15 03:24 49.07163 -122.00377 12006 ft 221 kts 97°
2026-04-15 03:24 49.07142 -121.98046 12012 ft 220 kts 98°
2026-04-15 03:24 49.07117 -121.95704 12011 ft 221 kts 98°
2026-04-15 03:24 49.07093 -121.93386 12012 ft 223 kts 98°
2026-04-15 03:25 49.07071 -121.91025 12000 ft 222 kts 97°
2026-04-15 03:25 49.07047 -121.88712 12014 ft 217 kts 98°
2026-04-15 03:25 49.07019 -121.86419 12018 ft 216 kts 98°
2026-04-15 03:25 49.06993 -121.84120 12012 ft 217 kts 98°
2026-04-15 03:26 49.06968 -121.81818 12019 ft 218 kts 98°
2026-04-15 03:26 49.06935 -121.79501 12022 ft 219 kts 99°
2026-04-15 03:26 49.06910 -121.77169 12027 ft 221 kts 97°
2026-04-15 03:26 49.06893 -121.74864 12022 ft 219 kts 98°
2026-04-15 03:27 49.06870 -121.72561 12018 ft 215 kts 98°
2026-04-15 03:27 49.06836 -121.70284 12009 ft 215 kts 98°
2026-04-15 03:27 49.06803 -121.68006 12030 ft 217 kts 98°
2026-04-15 03:27 49.06771 -121.65666 12009 ft 222 kts 97°
2026-04-15 03:28 49.06749 -121.63330 12022 ft 220 kts 98°
2026-04-15 03:28 49.06718 -121.60988 12012 ft 220 kts 98°
2026-04-15 03:28 49.06685 -121.58685 12010 ft 214 kts 98°
2026-04-15 03:28 49.06657 -121.56386 12020 ft 222 kts 96°
2026-04-15 03:29 49.06628 -121.54062 11949 ft 207 kts 97°
2026-04-15 03:29 49.06603 -121.52071 12052 ft 172 kts 100°
2026-04-15 03:29 49.06564 -121.50131 12031 ft 203 kts 100°
2026-04-15 03:29 49.06521 -121.47963 11977 ft 195 kts 99°
2026-04-15 03:30 49.06502 -121.45854 11998 ft 201 kts 96°
2026-04-15 03:30 49.06475 -121.43702 12015 ft 205 kts 97°
2026-04-15 03:30 49.06444 -121.41513 12006 ft 209 kts 99°
2026-04-15 03:30 49.06503 -121.39250 12005 ft 223 kts 82°
2026-04-15 03:31 49.07086 -121.37043 11968 ft 220 kts 62°
2026-04-15 03:31 49.07824 -121.35049 11997 ft 219 kts 61°
2026-04-15 03:31 49.08518 -121.32947 11973 ft 224 kts 64°
2026-04-15 03:31 49.09160 -121.30857 11994 ft 218 kts 65°
2026-04-15 03:32 49.09824 -121.28735 12003 ft 225 kts 65°
2026-04-15 03:32 49.10496 -121.26611 11995 ft 220 kts 65°
2026-04-15 03:32 49.11173 -121.24482 11999 ft 226 kts 65°
2026-04-15 03:32 49.11852 -121.22324 11986 ft 225 kts 65°
2026-04-15 03:33 49.12532 -121.20160 11989 ft 226 kts 65°
2026-04-15 03:33 49.13210 -121.18004 11992 ft 225 kts 65°
2026-04-15 03:33 49.13884 -121.15862 11991 ft 224 kts 65°
2026-04-15 03:33 49.14560 -121.13717 11986 ft 225 kts 65°
2026-04-15 03:34 49.15221 -121.11602 12072 ft 222 kts 65°
2026-04-15 03:34 49.15892 -121.09470 12087 ft 223 kts 65°
2026-04-15 03:34 49.16584 -121.07378 12108 ft 215 kts 56°
2026-04-15 03:34 49.17548 -121.05562 12071 ft 224 kts 42°
2026-04-15 03:35 49.18601 -121.03782 11986 ft 232 kts 46°
2026-04-15 03:35 49.19622 -121.01822 11763 ft 237 kts 51°
2026-04-15 03:35 49.20631 -120.99814 11563 ft 238 kts 50°
2026-04-15 03:35 49.21649 -120.97828 11349 ft 236 kts 51°
2026-04-15 03:36 49.22653 -120.95896 11158 ft 234 kts 50°
2026-04-15 03:36 49.23664 -120.93946 10953 ft 233 kts 50°
2026-04-15 03:36 49.24665 -120.92004 10752 ft 233 kts 51°
2026-04-15 03:36 49.25669 -120.90052 10541 ft 233 kts 51°
2026-04-15 03:37 49.26648 -120.88149 10334 ft 227 kts 51°
2026-04-15 03:37 49.27621 -120.86260 10116 ft 224 kts 51°
2026-04-15 03:37 49.28580 -120.84391 10047 ft 220 kts 52°
2026-04-15 03:37 49.29510 -120.82576 10050 ft 215 kts 52°
2026-04-15 03:38 49.30423 -120.80800 10049 ft 210 kts 51°
2026-04-15 03:38 49.31321 -120.79049 10049 ft 207 kts 51°
2026-04-15 03:38 49.32208 -120.77318 10045 ft 206 kts 51°
2026-04-15 03:38 49.33090 -120.75596 10048 ft 205 kts 51°
2026-04-15 03:39 49.33965 -120.73889 10044 ft 206 kts 51°
2026-04-15 03:39 49.34854 -120.72151 10050 ft 208 kts 51°
2026-04-15 03:39 49.35744 -120.70409 10045 ft 205 kts 51°
2026-04-15 03:39 49.36620 -120.68692 10029 ft 202 kts 52°
2026-04-15 03:40 49.37496 -120.66978 10049 ft 207 kts 51°
2026-04-15 03:40 49.38384 -120.65243 10036 ft 207 kts 51°
2026-04-15 03:40 49.39267 -120.63511 10046 ft 206 kts 51°
2026-04-15 03:40 49.40143 -120.61790 10042 ft 203 kts 51°
2026-04-15 03:41 49.41016 -120.60078 10043 ft 204 kts 51°
2026-04-15 03:41 49.41881 -120.58377 10036 ft 205 kts 51°
2026-04-15 03:41 49.42761 -120.56646 10035 ft 206 kts 51°
2026-04-15 03:41 49.43647 -120.54903 10035 ft 207 kts 51°
2026-04-15 03:42 49.44538 -120.53150 10036 ft 208 kts 51°
2026-04-15 03:42 49.45427 -120.51397 10035 ft 208 kts 51°
2026-04-15 03:42 49.46315 -120.49649 10034 ft 208 kts 51°
2026-04-15 03:42 49.47203 -120.47896 10038 ft 208 kts 51°
2026-04-15 03:43 49.48096 -120.46136 10029 ft 209 kts 51°
2026-04-15 03:43 49.48986 -120.44377 10028 ft 208 kts 51°
2026-04-15 03:43 49.49874 -120.42623 10023 ft 208 kts 51°
2026-04-15 03:43 49.50757 -120.40874 9971 ft 199 kts 52°
2026-04-15 03:44 49.51590 -120.39222 10031 ft 204 kts 51°
2026-04-15 03:44 49.52468 -120.37490 10027 ft 205 kts 51°
2026-04-15 03:44 49.53346 -120.35750 10037 ft 207 kts 51°
2026-04-15 03:44 49.54234 -120.33992 10033 ft 208 kts 51°
2026-04-15 03:45 49.55119 -120.32233 10039 ft 208 kts 51°
2026-04-15 03:45 49.56007 -120.30471 10033 ft 209 kts 51°
2026-04-15 03:45 49.56888 -120.28720 10034 ft 205 kts 51°
2026-04-15 03:45 49.57763 -120.26981 10042 ft 207 kts 51°
2026-04-15 03:46 49.58647 -120.25221 10040 ft 208 kts 51°
2026-04-15 03:46 49.59519 -120.23487 10034 ft 207 kts 51°
2026-04-15 03:46 49.60405 -120.21721 10030 ft 209 kts 51°
2026-04-15 03:46 49.61293 -120.19950 10028 ft 210 kts 51°
2026-04-15 03:47 49.62181 -120.18179 10044 ft 209 kts 51°
2026-04-15 03:47 49.63075 -120.16398 10031 ft 210 kts 51°
2026-04-15 03:47 49.63968 -120.14611 10031 ft 210 kts 51°
2026-04-15 03:47 49.64859 -120.12830 10028 ft 210 kts 51°
2026-04-15 03:48 49.65754 -120.11041 10029 ft 211 kts 51°
2026-04-15 03:48 49.66650 -120.09251 10030 ft 211 kts 51°
2026-04-15 03:48 49.67545 -120.07461 9860 ft 216 kts 51°
2026-04-15 03:48 49.68589 -120.05825 9668 ft 214 kts 28°
2026-04-15 03:49 49.69946 -120.05090 9446 ft 202 kts 356°
2026-04-15 03:49 49.71270 -120.05411 9243 ft 187 kts 327°
2026-04-15 03:49 49.72334 -120.06452 9053 ft 178 kts 305°
2026-04-15 03:49 49.73051 -120.07936 8822 ft 169 kts 290°
2026-04-15 03:50 49.73672 -120.09469 8622 ft 169 kts 292°
2026-04-15 03:50 49.74326 -120.11001 8418 ft 172 kts 293°
2026-04-15 03:50 49.74997 -120.12565 8216 ft 177 kts 294°
2026-04-15 03:50 49.75682 -120.14160 8012 ft 179 kts 294°
2026-04-15 03:51 49.76357 -120.15728 7792 ft 176 kts 294°
2026-04-15 03:51 49.76900 -120.17357 7633 ft 161 kts 274°
2026-04-15 03:51 49.76832 -120.18984 7631 ft 148 kts 246°
2026-04-15 03:51 49.76297 -120.20297 7628 ft 144 kts 223°
2026-04-15 03:52 49.75481 -120.21171 7631 ft 141 kts 214°
2026-04-15 03:52 49.74667 -120.22007 7635 ft 139 kts 215°
2026-04-15 03:52 49.73856 -120.22839 7628 ft 140 kts 214°
2026-04-15 03:52 49.73041 -120.23672 7633 ft 141 kts 214°
2026-04-15 03:53 49.72220 -120.24513 7633 ft 142 kts 214°
2026-04-15 03:53 49.71401 -120.25348 7587 ft 145 kts 214°
2026-04-15 03:53 49.70548 -120.26220 7381 ft 148 kts 214°
2026-04-15 03:53 49.69690 -120.27096 7199 ft 147 kts 213°
2026-04-15 03:54 49.68842 -120.27963 7049 ft 147 kts 213°
2026-04-15 03:54 49.67994 -120.28830 6893 ft 145 kts 213°
2026-04-15 03:54 49.67152 -120.29690 6758 ft 147 kts 213°
2026-04-15 03:55 49.65430 -120.31444 6442 ft 147 kts 212°
2026-04-15 03:55 49.64578 -120.32316 6327 ft 145 kts 212°
2026-04-15 03:55 49.63757 -120.33154 6337 ft 140 kts 211°
2026-04-15 03:55 49.62942 -120.33980 6319 ft 141 kts 211°
2026-04-15 03:56 49.62143 -120.34793 6322 ft 134 kts 211°
2026-04-15 03:56 49.61381 -120.35569 6322 ft 129 kts 212°
2026-04-15 03:56 49.60654 -120.36311 6317 ft 121 kts 212°
2026-04-15 03:56 49.59963 -120.37014 6199 ft 119 kts 211°
2026-04-15 03:57 49.59285 -120.37698 6018 ft 112 kts 211°
2026-04-15 03:57 49.58638 -120.38357 5817 ft 112 kts 211°
2026-04-15 03:57 49.57996 -120.39014 5621 ft 111 kts 211°
2026-04-15 03:57 49.57346 -120.39673 5398 ft 114 kts 211°
2026-04-15 03:58 49.56682 -120.40347 5160 ft 117 kts 211°
2026-04-15 03:58 49.56001 -120.41035 4924 ft 119 kts 210°
2026-04-15 03:58 49.55300 -120.41745 4679 ft 123 kts 211°
2026-04-15 03:58 49.54576 -120.42480 4469 ft 127 kts 211°
2026-04-15 03:59 49.53831 -120.43237 4269 ft 129 kts 212°
2026-04-15 03:59 49.53080 -120.43997 4098 ft 129 kts 211°
2026-04-15 03:59 49.52346 -120.44741 3925 ft 124 kts 211°
2026-04-15 03:59 49.51664 -120.45490 3795 ft 110 kts 214°
2026-04-15 04:00 49.51076 -120.46120 3644 ft 100 kts 211°
2026-04-15 04:00 49.50519 -120.46737 3521 ft 97 kts 213°
2026-04-15 04:00 49.49968 -120.47382 3368 ft 103 kts 216°
2026-04-15 04:00 49.49379 -120.47960 3251 ft 98 kts 204°
2026-04-15 04:01 49.48765 -120.48398 3107 ft 97 kts 205°
2026-04-15 04:01 49.48169 -120.48902 2915 ft 100 kts 208°
2026-04-15 04:01 49.47642 -120.49544 2674 ft 89 kts 222°
2026-04-15 04:01 49.47296 -120.50218 2473 ft 73 kts 228°
2026-04-15 04:02 49.47024 -120.50769 2408 ft 56 kts 232°
2026-04-15 04:02 49.46826 -120.51179 2405 ft 37 kts 233°
2026-04-15 04:02 49.46724 -120.51397 2408 ft 15 kts 237°
2026-04-15 04:02 49.46756 -120.51506 2410 ft 13 kts 322°
2026-04-15 04:03 49.46795 -120.51501 2413 ft 0 kts 59°